Time,TemperatureF,DewpointF,PressureIn,WindDirection,WindDirectionDegrees,WindSpeedMPH,WindSpeedGustMPH,Humidity,HourlyPrecipIn,Conditions,Clouds,dailyrainin,SoftwareType,DateUTC
2013-03-24 00:08:00,51.1,50.0,29.70,WSW,255,0.0,1.0,95,0.12,,,0.01,weatherlink.com 1.10,2013-03-24 05:08:00,
2013-03-24 00:23:00,51.1,50.0,29.67,NE,56,0.0,2.0,95,0.09,,,0.02,weatherlink.com 1.10,2013-03-24 05:23:00,
2013-03-24 00:38:00,50.9,50.0,29.68,ENE,68,0.0,2.0,96,0.07,,,0.02,weatherlink.com 1.10,2013-03-24 05:38:00,
2013-03-24 00:54:00,50.8,50.0,29.67,NW,320,0.0,5.0,96,0.05,,,0.02,weatherlink.com 1.10,2013-03-24 05:54:00,
2013-03-24 01:09:00,50.8,50.0,29.66,ENE,67,0.0,2.0,96,0.01,,,0.02,weatherlink.com 1.10,2013-03-24 06:09:00,
2013-03-24 01:24:00,50.8,50.0,29.66,ENE,69,0.0,4.0,96,0.00,,,0.02,weatherlink.com 1.10,2013-03-24 06:24:00,
2013-03-24 01:39:00,50.8,50.0,29.65,ENE,70,0.0,0.0,96,0.00,,,0.02,weatherlink.com 1.10,2013-03-24 06:39:00,
2013-03-24 01:54:00,50.7,50.0,29.65,ENE,60,1.0,2.0,96,0.00,,,0.02,weatherlink.com 1.10,2013-03-24 06:54:00,
2013-03-24 02:09:00,50.6,50.0,29.64,ENE,63,0.0,0.0,96,0.00,,,0.02,weatherlink.com 1.10,2013-03-24 07:09:00,
2013-03-24 02:24:00,50.4,49.0,29.64,ENE,63,0.0,0.0,96,0.00,,,0.02,weatherlink.com 1.10,2013-03-24 07:24:00,
2013-03-24 02:39:00,50.5,49.0,29.64,ENE,63,0.0,0.0,96,0.00,,,0.02,weatherlink.com 1.10,2013-03-24 07:39:00,
2013-03-24 02:54:00,50.6,50.0,29.64,ENE,63,0.0,1.0,96,0.00,,,0.02,weatherlink.com 1.10,2013-03-24 07:54:00,
2013-03-24 03:09:00,50.6,50.0,29.64,NW,316,0.0,0.0,96,0.00,,,0.02,weatherlink.com 1.10,2013-03-24 08:09:00,
2013-03-24 03:24:00,50.6,50.0,29.64,NW,307,0.0,0.0,96,0.00,,,0.02,weatherlink.com 1.10,2013-03-24 08:24:00,
2013-03-24 03:39:00,50.5,49.0,29.61,ENE,72,0.0,1.0,96,0.00,,,0.02,weatherlink.com 1.10,2013-03-24 08:39:00,
2013-03-24 03:54:00,50.4,49.0,29.62,NW,317,0.0,1.0,96,0.00,,,0.02,weatherlink.com 1.10,2013-03-24 08:54:00,
2013-03-24 04:09:00,50.4,49.0,29.62,NW,311,0.0,1.0,96,0.00,,,0.02,weatherlink.com 1.10,2013-03-24 09:09:00,
2013-03-24 04:24:00,50.2,49.0,29.63,North,355,0.0,1.0,96,0.00,,,0.02,weatherlink.com 1.10,2013-03-24 09:24:00,
2013-03-24 04:39:00,50.0,49.0,29.64,West,276,0.0,2.0,96,0.00,,,0.02,weatherlink.com 1.10,2013-03-24 09:39:00,
2013-03-24 04:54:00,49.9,49.0,29.65,WNW,291,1.0,3.0,96,0.00,,,0.02,weatherlink.com 1.10,2013-03-24 09:54:00,
2013-03-24 05:09:00,49.8,49.0,29.66,WNW,287,1.0,2.0,96,0.00,,,0.02,weatherlink.com 1.10,2013-03-24 10:09:00,
2013-03-24 05:24:00,49.8,49.0,29.66,WSW,256,2.0,2.0,96,0.00,,,0.02,weatherlink.com 1.10,2013-03-24 10:24:00,
2013-03-24 05:39:00,49.8,49.0,29.66,WNW,294,0.0,1.0,96,0.00,,,0.02,weatherlink.com 1.10,2013-03-24 10:39:00,
2013-03-24 05:54:00,49.9,49.0,29.66,SW,235,0.0,1.0,96,0.00,,,0.02,weatherlink.com 1.10,2013-03-24 10:54:00,
2013-03-24 06:09:00,50.0,49.0,29.67,WNW,290,2.0,3.0,96,0.00,,,0.02,weatherlink.com 1.10,2013-03-24 11:09:00,
2013-03-24 06:24:00,49.8,49.0,29.66,WSW,249,0.0,3.0,96,0.00,,,0.02,weatherlink.com 1.10,2013-03-24 11:24:00,
2013-03-24 06:39:00,49.7,49.0,29.65,WNW,294,1.0,2.0,96,0.00,,,0.02,weatherlink.com 1.10,2013-03-24 11:39:00,
2013-03-24 06:54:00,49.5,48.0,29.64,NW,305,0.0,2.0,96,0.00,,,0.02,weatherlink.com 1.10,2013-03-24 11:54:00,
2013-03-24 07:09:00,49.4,48.0,29.64,WNW,293,0.0,1.0,96,0.00,,,0.02,weatherlink.com 1.10,2013-03-24 12:09:00,
2013-03-24 07:24:00,49.5,49.0,29.61,ESE,109,0.0,3.0,97,0.00,,,0.02,weatherlink.com 1.10,2013-03-24 12:24:00,
2013-03-24 07:39:00,49.6,49.0,29.56,SE,135,1.0,1.0,97,0.00,,,0.02,weatherlink.com 1.10,2013-03-24 12:39:00,
2013-03-24 07:54:00,49.7,49.0,29.62,SW,225,0.0,3.0,97,0.00,,,0.02,weatherlink.com 1.10,2013-03-24 12:54:00,
2013-03-24 08:09:00,49.9,49.0,29.62,South,169,2.0,3.0,97,0.00,,,0.02,weatherlink.com 1.10,2013-03-24 13:09:00,
2013-03-24 08:24:00,50.0,49.0,29.62,SSW,210,0.0,2.0,97,0.00,,,0.02,weatherlink.com 1.10,2013-03-24 13:24:00,
2013-03-24 08:39:00,50.1,49.0,29.62,SSW,198,0.0,3.0,97,0.00,,,0.02,weatherlink.com 1.10,2013-03-24 13:39:00,
2013-03-24 08:54:00,50.1,49.0,29.60,SSW,197,1.0,3.0,97,0.00,,,0.02,weatherlink.com 1.10,2013-03-24 13:54:00,
2013-03-24 09:09:00,50.3,50.0,29.60,SW,221,1.0,5.0,97,0.00,,,0.02,weatherlink.com 1.10,2013-03-24 14:09:00,
2013-03-24 09:24:00,50.4,50.0,29.61,SW,232,1.0,10.0,97,0.00,,,0.02,weatherlink.com 1.10,2013-03-24 14:24:00,
2013-03-24 09:39:00,50.0,49.0,29.62,WSW,238,3.0,8.0,96,0.00,,,0.02,weatherlink.com 1.10,2013-03-24 14:39:00,
2013-03-24 09:54:00,49.6,49.0,29.63,WSW,251,4.0,9.0,96,0.01,,,0.03,weatherlink.com 1.10,2013-03-24 14:54:00,
2013-03-24 10:09:00,48.7,47.0,29.63,WNW,294,4.0,18.0,93,0.02,,,0.04,weatherlink.com 1.10,2013-03-24 15:09:00,
2013-03-24 10:39:00,47.3,46.0,29.65,WSW,249,5.0,11.0,94,0.03,,,0.05,weatherlink.com 1.10,2013-03-24 15:39:00,
2013-03-24 10:54:00,47.1,46.0,29.65,SW,217,4.0,10.0,94,0.03,,,0.06,weatherlink.com 1.10,2013-03-24 15:54:00,
2013-03-24 11:09:00,47.1,45.0,29.65,SW,215,1.0,11.0,93,0.02,,,0.06,weatherlink.com 1.10,2013-03-24 16:09:00,
2013-03-24 11:24:00,46.9,45.0,29.65,West,267,3.0,9.0,93,0.01,,,0.06,weatherlink.com 1.10,2013-03-24 16:24:00,
2013-03-24 11:39:00,47.1,45.0,29.65,NE,37,6.0,9.0,92,0.01,,,0.06,weatherlink.com 1.10,2013-03-24 16:39:00,
2013-03-24 11:54:00,48.0,45.0,29.65,South,183,2.0,11.0,90,0.00,,,0.06,weatherlink.com 1.10,2013-03-24 16:54:00,
2013-03-24 12:09:00,49.2,45.0,29.65,WSW,250,5.0,14.0,84,0.00,,,0.06,weatherlink.com 1.10,2013-03-24 17:09:00,
2013-03-24 12:25:00,50.0,44.0,29.65,WSW,256,9.0,19.0,80,0.00,,,0.06,weatherlink.com 1.10,2013-03-24 17:25:00,
2013-03-24 12:40:00,50.1,41.0,29.66,SSW,194,4.0,16.0,71,0.00,,,0.06,weatherlink.com 1.10,2013-03-24 17:40:00,
2013-03-24 12:55:00,47.8,38.0,29.68,SW,229,6.0,17.0,70,0.00,,,0.06,weatherlink.com 1.10,2013-03-24 17:55:00,
2013-03-24 13:10:00,46.1,37.0,29.69,SSW,212,7.0,12.0,71,0.00,,,0.06,weatherlink.com 1.10,2013-03-24 18:10:00,
2013-03-24 13:25:00,45.1,35.0,29.69,SE,146,8.0,15.0,69,0.00,,,0.06,weatherlink.com 1.10,2013-03-24 18:25:00,
2013-03-24 13:40:00,44.4,35.0,29.70,WSW,256,11.0,14.0,70,0.00,,,0.06,weatherlink.com 1.10,2013-03-24 18:40:00,
2013-03-24 13:55:00,44.4,35.0,29.70,WNW,285,5.0,13.0,70,0.00,,,0.06,weatherlink.com 1.10,2013-03-24 18:55:00,
2013-03-24 14:10:00,44.4,35.0,29.70,West,271,7.0,14.0,70,0.00,,,0.06,weatherlink.com 1.10,2013-03-24 19:10:00,
2013-03-24 14:25:00,43.9,35.0,29.70,WSW,245,9.0,18.0,71,0.00,,,0.06,weatherlink.com 1.10,2013-03-24 19:25:00,
2013-03-24 14:40:00,44.0,34.0,29.70,WSW,239,11.0,18.0,69,0.00,,,0.06,weatherlink.com 1.10,2013-03-24 19:40:00,
2013-03-24 14:55:00,44.2,35.0,29.71,WNW,293,6.0,14.0,70,0.00,,,0.06,weatherlink.com 1.10,2013-03-24 19:55:00,
2013-03-24 15:10:00,43.5,34.0,29.71,WSW,248,11.0,23.0,70,0.00,,,0.06,weatherlink.com 1.10,2013-03-24 20:10:00,
2013-03-24 15:25:00,43.3,34.0,29.72,SSW,201,3.0,13.0,71,0.00,,,0.06,weatherlink.com 1.10,2013-03-24 20:25:00,
2013-03-24 15:40:00,43.1,34.0,29.73,SSW,210,4.0,13.0,71,0.00,,,0.06,weatherlink.com 1.10,2013-03-24 20:40:00,
2013-03-24 15:55:00,42.7,34.0,29.74,SE,129,5.0,16.0,72,0.00,,,0.06,weatherlink.com 1.10,2013-03-24 20:55:00,
2013-03-24 16:10:00,42.5,34.0,29.74,WSW,243,8.0,13.0,72,0.00,,,0.06,weatherlink.com 1.10,2013-03-24 21:10:00,
2013-03-24 16:25:00,42.3,34.0,29.75,WNW,300,6.0,14.0,73,0.00,,,0.06,weatherlink.com 1.10,2013-03-24 21:25:00,
2013-03-24 16:40:00,42.2,34.0,29.76,WSW,248,4.0,12.0,72,0.00,,,0.06,weatherlink.com 1.10,2013-03-24 21:40:00,
2013-03-24 16:55:00,42.4,32.0,29.78,WNW,290,10.0,18.0,66,0.00,,,0.06,weatherlink.com 1.10,2013-03-24 21:55:00,
2013-03-24 17:10:00,42.2,31.0,29.79,WNW,284,6.0,23.0,66,0.00,,,0.06,weatherlink.com 1.10,2013-03-24 22:10:00,
2013-03-24 17:25:00,42.1,31.0,29.80,NNW,327,4.0,14.0,66,0.00,,,0.06,weatherlink.com 1.10,2013-03-24 22:25:00,
2013-03-24 17:40:00,41.9,30.0,29.81,West,277,8.0,19.0,64,0.00,,,0.06,weatherlink.com 1.10,2013-03-24 22:40:00,
2013-03-24 17:55:00,41.7,31.0,29.82,WSW,257,7.0,11.0,65,0.00,,,0.06,weatherlink.com 1.10,2013-03-24 22:55:00,
2013-03-24 18:11:00,41.5,31.0,29.83,SW,224,5.0,12.0,67,0.00,,,0.06,weatherlink.com 1.10,2013-03-24 23:11:00,
2013-03-24 18:26:00,41.3,31.0,29.84,West,271,4.0,19.0,67,0.00,,,0.06,weatherlink.com 1.10,2013-03-24 23:26:00,
2013-03-24 18:41:00,41.2,31.0,29.85,NNW,342,7.0,16.0,66,0.00,,,0.06,weatherlink.com 1.10,2013-03-24 23:41:00,
2013-03-24 18:56:00,41.0,31.0,29.86,SSW,210,4.0,14.0,67,0.00,,,0.06,weatherlink.com 1.10,2013-03-24 23:56:00,
2013-03-24 19:11:00,40.7,31.0,29.87,NW,317,6.0,17.0,68,0.00,,,0.06,weatherlink.com 1.10,2013-03-25 00:11:00,
2013-03-24 19:26:00,40.5,30.0,29.88,West,278,4.0,14.0,67,0.00,,,0.06,weatherlink.com 1.10,2013-03-25 00:26:00,
2013-03-24 19:41:00,40.3,30.0,29.89,North,357,7.0,9.0,67,0.00,,,0.06,weatherlink.com 1.10,2013-03-25 00:41:00,
2013-03-24 19:56:00,40.0,30.0,29.90,NW,304,8.0,13.0,67,0.00,,,0.06,weatherlink.com 1.10,2013-03-25 00:56:00,
2013-03-24 20:11:00,39.7,29.0,29.91,West,270,2.0,13.0,66,0.00,,,0.06,weatherlink.com 1.10,2013-03-25 01:11:00,
2013-03-24 20:26:00,39.5,30.0,29.91,WSW,243,3.0,13.0,68,0.00,,,0.06,weatherlink.com 1.10,2013-03-25 01:26:00,
2013-03-24 20:56:00,39.3,29.0,29.93,WSW,255,7.0,17.0,67,0.00,,,0.06,weatherlink.com 1.10,2013-03-25 01:56:00,
2013-03-24 21:11:00,39.2,29.0,29.94,NNW,338,2.0,15.0,66,0.00,,,0.06,weatherlink.com 1.10,2013-03-25 02:11:00,
2013-03-24 21:26:00,39.1,29.0,29.95,NNW,330,3.0,14.0,67,0.00,,,0.06,weatherlink.com 1.10,2013-03-25 02:26:00,
2013-03-24 21:41:00,38.8,28.0,29.95,North,360,5.0,15.0,66,0.00,,,0.06,weatherlink.com 1.10,2013-03-25 02:41:00,
2013-03-24 21:56:00,38.7,29.0,29.96,North,355,1.0,15.0,67,0.00,,,0.06,weatherlink.com 1.10,2013-03-25 02:56:00,
2013-03-24 22:11:00,38.5,28.0,29.97,WNW,292,13.0,13.0,67,0.00,,,0.06,weatherlink.com 1.10,2013-03-25 03:11:00,
2013-03-24 22:27:00,38.3,27.0,29.97,WSW,251,6.0,12.0,65,0.00,,,0.06,weatherlink.com 1.10,2013-03-25 03:27:00,
2013-03-24 22:42:00,37.8,27.0,29.97,West,260,2.0,10.0,66,0.00,,,0.06,weatherlink.com 1.10,2013-03-25 03:42:00,
2013-03-24 22:57:00,37.4,27.0,29.98,WNW,301,13.0,15.0,67,0.00,,,0.06,weatherlink.com 1.10,2013-03-25 03:57:00,
2013-03-24 23:12:00,37.1,27.0,29.98,NNW,335,5.0,9.0,67,0.00,,,0.06,weatherlink.com 1.10,2013-03-25 04:12:00,
2013-03-24 23:27:00,37.0,27.0,29.98,West,278,7.0,15.0,67,0.00,,,0.06,weatherlink.com 1.10,2013-03-25 04:27:00,
2013-03-24 23:42:00,37.0,27.0,29.99,North,360,4.0,19.0,67,0.00,,,0.06,weatherlink.com 1.10,2013-03-25 04:42:00,
2013-03-24 23:57:00,37.0,27.0,30.00,West,262,6.0,15.0,68,0.00,,,0.06,weatherlink.com 1.10,2013-03-25 04:57:00,